This demonstration page uses our WeatherBlox Daily Observations layout. Learn more.

Left ArrowRight Arrow

40.92945, -100.16068

Hourly Observations for April 21, 2015

Temp ( °F °C ) Dew Point ( °F °C ) Humidity (%) Winds ( mph kmh ) Pressure ( in mb ) Visibility ( mi km ) Precip ( " mm )
12:15 am 00:15 Clear 35 1.6 31 -0.5 86 86 WNW 6 9 29.97 1015 10 16 N/A
12:35 am 00:35 Clear 35 1.7 31 -0.3 87 87 W 6 9 29.97 1015 10 16 N/A
12:55 am 00:55 Clear 34 1.2 31 -0.6 88 88 WNW 5 7 30.00 1016 10 16 N/A
1:15 am 01:15 Clear 35 1.4 31 -0.5 87 87 WNW 5 7 30.00 1016 10 16 N/A
1:35 am 01:35 Clear 33 0.8 30 -1 88 88 NW 5 7 30.00 1016 10 16 N/A
1:55 am 01:55 Partly Cloudy 33 0.5 30 -1 90 90 WNW 6 9 30.00 1016 10 16 N/A
2:15 am 02:15 Cloudy 34 1.1 31 -0.5 89 89 WNW 5 7 30.00 1016 10 16 N/A
2:35 am 02:35 Cloudy 35 1.5 32 -0.1 89 89 W 3 6 30.00 1016 10 16 N/A
2:55 am 02:55 Cloudy 35 1.5 32 undefined 90 90 W 5 7 30.00 1016 10 16 N/A
3:15 am 03:15 Cloudy 35 1.5 32 undefined 90 90 WNW 6 9 30.00 1016 10 16 N/A
3:35 am 03:35 Partly Cloudy 33 0.8 31 -0.8 89 89 NNW 6 9 30.00 1016 10 16 N/A
3:55 am 03:55 Clear 33 0.5 30 -1 90 90 NW 7 11 30.00 1016 10 16 N/A
4:15 am 04:15 Clear 32 0.2 30 -1.2 90 90 NW 7 11 30.00 1016 10 16 N/A
4:35 am 04:35 Clear 32 undefined 29 -1.5 90 90 WNW 6 9 30.00 1016 10 16 N/A
4:55 am 04:55 Clear 32 undefined 29 -1.4 90 90 N N/A 30.00 1016 10 16 N/A
5:15 am 05:15 Clear 32 undefined 30 -1.3 91 91 W 5 7 29.97 1015 10 16 N/A
5:35 am 05:35 Clear 31 -0.3 29 -1.8 90 90 WNW 6 9 29.97 1015 10 16 N/A
5:55 am 05:55 Clear 31 -0.3 28 -2 88 88 W 5 7 29.97 1015 10 16 N/A
6:15 am 06:15 Clear 31 -0.3 29 -1.7 90 90 W 6 9 29.97 1015 10 16 N/A
6:35 am 06:35 Clear 31 -0.5 29 -1.8 91 91 W 6 9 29.97 1015 10 16 N/A
6:55 am 06:55 Sunny 32 undefined 29 -1.5 90 90 W 7 11 29.97 1015 10 16 N/A
7:15 am 07:15 Sunny 32 -0.1 29 -1.5 90 90 W 6 9 29.97 1015 10 16 N/A
7:35 am 07:35 Sunny 32 0.1 30 -1 92 92 W 6 9 29.97 1015 10 16 N/A
7:55 am 07:55 Sunny 34 0.9 31 -0.5 90 90 W 6 9 29.97 1015 10 16 N/A
8:15 am 08:15 Sunny 36 2 32 undefined 87 87 WNW 6 9 29.97 1015 10 16 N/A
8:35 am 08:35 Sunny 38 3.4 33 0.7 83 83 WNW 5 7 29.94 1014 10 16 N/A
8:55 am 08:55 Sunny 40 4.6 34 1.2 79 79 WNW 6 9 29.94 1014 10 16 N/A
9:15 am 09:15 Sunny 43 5.9 35 1.5 74 74 WNW 7 11 29.91 1013 10 16 N/A
9:35 am 09:35 Sunny 46 7.9 36 2.3 68 68 W 6 9 29.91 1013 10 16 N/A
9:55 am 09:55 Sunny 50 10 35 1.5 56 56 W 6 9 29.88 1012 10 16 N/A
10:15 am 10:15 Sunny 53 11.8 32 0.2 45 45 WSW 7 11 29.85 1011 10 16 N/A
10:35 am 10:35 Sunny 55 12.7 30 -1 39 39 WSW 7 11 29.85 1011 10 16 N/A
10:55 am 10:55 Sunny 57 13.9 31 -0.3 38 38 WSW 9 15 29.85 1011 10 16 N/A
11:15 am 11:15 Sunny 58 14.5 31 -0.4 36 36 WSW 10 17 29.80 1009 10 16 N/A
11:35 am 11:35 Sunny 60 15.3 31 -0.4 34 34 WSW 9 15 29.80 1009 10 16 N/A
11:55 am 11:55 Sunny 61 16.1 31 -0.4 33 33 W 13 20 29.80 1009 10 16 N/A
12:15 pm 12:15 Sunny 62 16.7 31 -0.6 31 31 W 12 19 29.77 1008 10 16 N/A
12:35 pm 12:35 Sunny 63 17.3 30 -0.9 29 29 W 14 22 29.77 1008 10 16 N/A
12:55 pm 12:55 Sunny 64 17.7 31 -0.6 29 29 W 20 31 29.77 1008 10 16 N/A
1:15 pm 13:15 Sunny 65 18.4 30 -1 27 27 WNW 18 30 29.77 1008 10 16 N/A
1:35 pm 13:35 Sunny 65 18.5 31 -0.7 27 27 W 17 28 29.71 1006 10 16 N/A
1:55 pm 13:55 Partly Cloudy 66 19 31 -0.4 27 27 W 18 30 29.71 1006 10 16 N/A
2:15 pm 14:15 Partly Cloudy 67 19.5 32 -0.2 27 27 W 22 35 29.71 1006 10 16 N/A
2:35 pm 14:35 Partly Cloudy 67 19.5 31 -0.5 26 26 WNW 21 33 29.71 1006 10 16 N/A
2:55 pm 14:55 Partly Cloudy 68 19.9 31 -0.5 25 25 WNW 26 43 29.71 1006 10 16 N/A
3:15 pm 15:15 Sunny 68 20.1 31 -0.3 26 26 WNW 24 39 29.68 1005 10 16 N/A
3:35 pm 15:35 Partly Cloudy 68 20.2 31 -0.7 25 25 WNW 24 39 29.68 1005 10 16 N/A
3:55 pm 15:55 Partly Cloudy 69 20.5 31 -0.3 25 25 W 20 31 29.65 1004 10 16 N/A
4:15 pm 16:15 Partly Cloudy 69 20.6 31 -0.4 25 25 WNW 22 35 29.65 1004 10 16 N/A
4:35 pm 16:35 Partly Cloudy 68 20 31 -0.3 26 26 W 18 30 29.68 1005 10 16 N/A
4:55 pm 16:55 Partly Cloudy 67 19.2 31 -0.8 26 26 NW 12 19 29.68 1005 10 16 N/A
5:15 pm 17:15 Mostly Cloudy 68 19.9 30 -1 25 25 NW 20 31 29.68 1005 10 16 N/A
5:35 pm 17:35 Mostly Cloudy 66 18.7 32 undefined 29 29 N 21 33 29.68 1005 10 16 N/A
5:55 pm 17:55 Mostly Cloudy 65 18.4 32 undefined 29 29 NNE 22 35 29.68 1005 10 16 N/A
6:15 pm 18:15 Cloudy 62 16.4 34 1.3 36 36 NNE 24 39 29.74 1007 10 16 N/A
6:35 pm 18:35 Mostly Cloudy 60 15.7 33 0.7 36 36 NE 25 41 29.74 1007 10 16 N/A
6:55 pm 18:55 Partly Cloudy 59 14.8 32 0.2 37 37 NE 24 39 29.77 1008 10 16 N/A
7:15 pm 19:15 Sunny 57 13.8 32 0.2 40 40 NE 24 39 29.80 1009 10 16 N/A
7:35 pm 19:35 Sunny 55 12.8 32 -0.2 41 41 NNE 21 33 29.83 1010 10 16 N/A
7:55 pm 19:55 Sunny 53 11.9 32 undefined 44 44 NE 15 24 29.85 1011 10 16 N/A
8:15 pm 20:15 Sunny 51 10.7 32 0.1 48 48 NE 13 20 29.88 1012 10 16 N/A
8:35 pm 20:35 Clear 49 9.5 33 0.5 54 54 ENE 9 15 29.91 1013 10 16 N/A
8:55 pm 20:55 Clear 49 9.3 32 undefined 53 53 NE 14 22 29.94 1014 10 16 N/A
9:15 pm 21:15 Clear 47 8.3 33 0.4 58 58 ENE 7 11 29.97 1015 10 16 N/A
9:35 pm 21:35 Clear 45 7.1 33 0.5 63 63 E 8 13 29.97 1015 10 16 N/A
9:55 pm 21:55 Clear 43 6.3 33 0.6 67 67 ENE 9 15 30.03 1017 10 16 N/A
10:15 pm 22:15 Clear 42 5.5 33 0.5 71 71 NE 8 13 30.03 1017 10 16 N/A
10:35 pm 22:35 Clear 42 5.7 32 undefined 67 67 NE 6 9 30.03 1017 10 16 N/A
10:55 pm 22:55 Clear 43 6.2 32 -0.2 64 64 NE 3 6 30.06 1018 10 16 N/A
11:15 pm 23:15 Clear 41 5.1 32 -0.2 69 69 NE 3 6 30.06 1018 10 16 N/A
11:35 pm 23:35 Clear 39 4 32 -0.2 74 74 NNE 5 7 30.06 1018 10 16 N/A
11:55 pm 23:55 Clear 37 3 32 -0.1 80 80 NNE 6 9 30.09 1019 10 16 N/A

Powered by AerisWeather